Year,Month,Day,Hour,Minute,Value (Times are PST for temperature in C)
2014,05,13,00,00,14.80
2014,05,13,00,01,14.80
2014,05,13,00,02,14.70
2014,05,13,00,03,14.70
2014,05,13,00,04,14.70
2014,05,13,00,05,14.70
2014,05,13,00,06,14.70
2014,05,13,00,07,14.70
2014,05,13,00,08,14.70
2014,05,13,00,09,14.70
2014,05,13,00,10,14.60
2014,05,13,00,11,14.60
2014,05,13,00,12,14.60
2014,05,13,00,13,14.60
2014,05,13,00,14,14.60
2014,05,13,00,15,14.60
2014,05,13,00,16,14.60
2014,05,13,00,17,14.60
2014,05,13,00,18,14.60
2014,05,13,00,19,14.60
2014,05,13,00,20,14.60
2014,05,13,00,21,14.60
2014,05,13,00,22,14.50
2014,05,13,00,23,14.50
2014,05,13,00,24,14.50
2014,05,13,00,25,14.50
2014,05,13,00,26,14.50
2014,05,13,00,27,14.40
2014,05,13,00,28,14.40
2014,05,13,00,29,14.40
2014,05,13,00,30,14.40
2014,05,13,00,31,14.40
2014,05,13,00,32,14.40
2014,05,13,00,33,14.40
2014,05,13,00,34,14.40
2014,05,13,00,35,14.30
2014,05,13,00,36,14.30
2014,05,13,00,37,14.30
2014,05,13,00,38,14.30
2014,05,13,00,39,14.30
2014,05,13,00,40,14.30
2014,05,13,00,41,14.30
2014,05,13,00,42,14.30
2014,05,13,00,43,14.30
2014,05,13,00,44,14.30
2014,05,13,00,45,14.30
2014,05,13,00,46,14.30
2014,05,13,00,47,14.30
2014,05,13,00,48,14.30
2014,05,13,00,49,14.30
2014,05,13,00,50,14.30
2014,05,13,00,51,14.30
2014,05,13,00,52,14.30
2014,05,13,00,53,14.30
2014,05,13,00,54,14.20
2014,05,13,00,55,14.30
2014,05,13,00,56,14.20
2014,05,13,00,57,14.20
2014,05,13,00,58,14.20
2014,05,13,00,59,14.20
2014,05,13,01,00,14.20
2014,05,13,01,01,14.20
2014,05,13,01,02,14.20
2014,05,13,01,03,14.20
2014,05,13,01,04,14.20
2014,05,13,01,05,14.20
2014,05,13,01,06,14.20
2014,05,13,01,07,14.20
2014,05,13,01,08,14.20
2014,05,13,01,09,14.20
2014,05,13,01,10,14.20
2014,05,13,01,11,14.20
2014,05,13,01,12,14.20
2014,05,13,01,13,14.20
2014,05,13,01,14,14.20
2014,05,13,01,15,14.20
2014,05,13,01,16,14.20
2014,05,13,01,17,14.20
2014,05,13,01,18,14.20
2014,05,13,01,19,14.20
2014,05,13,01,20,14.20
2014,05,13,01,21,14.20
2014,05,13,01,22,14.20
2014,05,13,01,23,14.20
2014,05,13,01,24,14.20
2014,05,13,01,25,14.20
2014,05,13,01,26,14.20
2014,05,13,01,27,14.20
2014,05,13,01,28,14.20
2014,05,13,01,29,14.20
2014,05,13,01,30,14.20
2014,05,13,01,31,14.20
2014,05,13,01,32,14.20
2014,05,13,01,33,14.20
2014,05,13,01,34,14.30
2014,05,13,01,35,14.30
2014,05,13,01,36,14.30
2014,05,13,01,37,14.30
2014,05,13,01,38,14.30
2014,05,13,01,39,14.30
2014,05,13,01,40,14.30
2014,05,13,01,41,14.30
2014,05,13,01,42,14.30
2014,05,13,01,43,14.30
2014,05,13,01,44,14.30
2014,05,13,01,45,14.20
2014,05,13,01,46,14.20
2014,05,13,01,47,14.20
2014,05,13,01,48,14.20
2014,05,13,01,49,14.20
2014,05,13,01,50,14.20
2014,05,13,01,51,14.20
2014,05,13,01,52,14.20
2014,05,13,01,53,14.20
2014,05,13,01,54,14.20
2014,05,13,01,55,14.20
2014,05,13,01,56,14.20
2014,05,13,01,57,14.20
2014,05,13,01,58,14.20
2014,05,13,01,59,14.20
2014,05,13,02,00,14.20
2014,05,13,02,01,14.30
2014,05,13,02,02,14.30
2014,05,13,02,03,14.30
2014,05,13,02,04,14.20
2014,05,13,02,05,14.20
2014,05,13,02,06,14.20
2014,05,13,02,07,14.20
2014,05,13,02,08,14.20
2014,05,13,02,09,14.20
2014,05,13,02,10,14.10
2014,05,13,02,11,14.10
2014,05,13,02,12,14.10
2014,05,13,02,13,14.10
2014,05,13,02,14,14.10
2014,05,13,02,15,14.10
2014,05,13,02,16,14.10
2014,05,13,02,17,14.00
2014,05,13,02,18,14.00
2014,05,13,02,19,14.00
2014,05,13,02,20,14.00
2014,05,13,02,21,14.00
2014,05,13,02,22,14.00
2014,05,13,02,23,14.00
2014,05,13,02,24,14.00
2014,05,13,02,25,14.00
2014,05,13,02,26,14.00
2014,05,13,02,27,14.00
2014,05,13,02,28,14.00
2014,05,13,02,29,14.00
2014,05,13,02,30,14.00
2014,05,13,02,31,14.00
2014,05,13,02,32,14.00
2014,05,13,02,33,13.90
2014,05,13,02,34,13.90
2014,05,13,02,35,13.90
2014,05,13,02,36,13.90
2014,05,13,02,37,13.90
2014,05,13,02,38,13.90
2014,05,13,02,39,13.90
2014,05,13,02,40,13.90
2014,05,13,02,41,13.90
2014,05,13,02,42,13.90
2014,05,13,02,43,13.90
2014,05,13,02,44,13.90
2014,05,13,02,45,13.90
2014,05,13,02,46,13.90
2014,05,13,02,47,13.90
2014,05,13,02,48,13.90
2014,05,13,02,49,13.90
2014,05,13,02,50,13.90
2014,05,13,02,51,13.90
2014,05,13,02,52,13.90
2014,05,13,02,53,13.90
2014,05,13,02,54,13.90
2014,05,13,02,55,13.90
2014,05,13,02,56,13.90
2014,05,13,02,57,13.90
2014,05,13,02,58,13.90
2014,05,13,02,59,13.90
2014,05,13,03,00,13.90
2014,05,13,03,01,13.90
2014,05,13,03,02,13.90
2014,05,13,03,03,13.90
2014,05,13,03,04,13.90
2014,05,13,03,05,13.90
2014,05,13,03,06,13.90
2014,05,13,03,07,13.90
2014,05,13,03,08,13.90
2014,05,13,03,09,13.90
2014,05,13,03,10,13.90
2014,05,13,03,11,13.90
2014,05,13,03,12,13.90
2014,05,13,03,13,13.90
2014,05,13,03,14,13.90
2014,05,13,03,15,13.90
2014,05,13,03,16,13.90
2014,05,13,03,17,13.90
2014,05,13,03,18,13.90
2014,05,13,03,19,13.90
2014,05,13,03,20,13.90
2014,05,13,03,21,13.90
2014,05,13,03,22,13.90
2014,05,13,03,23,13.90
2014,05,13,03,24,13.90
2014,05,13,03,25,13.90
2014,05,13,03,26,13.90
2014,05,13,03,27,13.90
2014,05,13,03,28,13.90
2014,05,13,03,29,13.90
2014,05,13,03,30,13.90
2014,05,13,03,31,13.90
2014,05,13,03,32,13.90
2014,05,13,03,33,13.90
2014,05,13,03,34,13.90
2014,05,13,03,35,13.90
2014,05,13,03,36,13.90
2014,05,13,03,37,13.90
2014,05,13,03,38,13.90
2014,05,13,03,39,13.90
2014,05,13,03,40,14.00
2014,05,13,03,41,14.00
2014,05,13,03,42,14.00
2014,05,13,03,43,14.00
2014,05,13,03,44,14.00
2014,05,13,03,45,14.00
2014,05,13,03,46,14.00
2014,05,13,03,47,14.00
2014,05,13,03,48,14.00
2014,05,13,03,49,14.00
2014,05,13,03,50,14.00
2014,05,13,03,51,14.00
2014,05,13,03,52,14.00
2014,05,13,03,53,14.00
2014,05,13,03,54,13.90
2014,05,13,03,55,13.90
2014,05,13,03,56,13.90
2014,05,13,03,57,13.90
2014,05,13,03,58,13.90
2014,05,13,03,59,13.90
2014,05,13,04,00,13.90
2014,05,13,04,01,13.90
2014,05,13,04,02,13.90
2014,05,13,04,03,13.90
2014,05,13,04,04,13.90
2014,05,13,04,05,13.90
2014,05,13,04,06,13.90
2014,05,13,04,07,13.90
2014,05,13,04,08,13.90
2014,05,13,04,09,13.90
2014,05,13,04,10,13.90
2014,05,13,04,11,13.90
2014,05,13,04,12,13.90
2014,05,13,04,13,13.90
2014,05,13,04,14,13.90
2014,05,13,04,15,13.90
2014,05,13,04,16,13.90
2014,05,13,04,17,13.90
2014,05,13,04,18,13.90
2014,05,13,04,19,13.90
2014,05,13,04,20,13.90
2014,05,13,04,21,13.90
2014,05,13,04,22,13.90
2014,05,13,04,23,13.90
2014,05,13,04,24,13.90
2014,05,13,04,25,13.90
2014,05,13,04,26,13.90
2014,05,13,04,27,13.90
2014,05,13,04,28,13.90
2014,05,13,04,29,13.90
2014,05,13,04,30,13.90
2014,05,13,04,31,13.90
2014,05,13,04,32,13.80
2014,05,13,04,33,13.80
2014,05,13,04,34,13.80
2014,05,13,04,35,13.80
2014,05,13,04,36,13.80
2014,05,13,04,37,13.80
2014,05,13,04,38,13.80
2014,05,13,04,39,13.80
2014,05,13,04,40,13.80
2014,05,13,04,41,13.80
2014,05,13,04,42,13.80
2014,05,13,04,43,13.80
2014,05,13,04,44,13.80
2014,05,13,04,45,13.80
2014,05,13,04,46,13.80
2014,05,13,04,47,13.80
2014,05,13,04,48,13.70
2014,05,13,04,49,13.70
2014,05,13,04,50,13.70
2014,05,13,04,51,13.80
2014,05,13,04,52,13.80
2014,05,13,04,53,13.80
2014,05,13,04,54,13.80
2014,05,13,04,55,13.80
2014,05,13,04,56,13.80
2014,05,13,04,57,13.80
2014,05,13,04,58,13.80
2014,05,13,04,59,13.80
2014,05,13,05,00,13.80
2014,05,13,05,01,13.80
2014,05,13,05,02,13.80
2014,05,13,05,39,13.80
2014,05,13,05,40,13.70
2014,05,13,05,41,13.70
2014,05,13,05,42,13.70
2014,05,13,05,43,13.70
2014,05,13,05,44,13.70
2014,05,13,05,45,13.70
2014,05,13,05,46,13.70
2014,05,13,05,47,13.70
2014,05,13,05,48,13.70
2014,05,13,05,49,13.70
2014,05,13,05,50,13.70
2014,05,13,05,51,13.70
2014,05,13,05,52,13.70
2014,05,13,05,53,13.70
2014,05,13,05,54,13.70
2014,05,13,05,55,13.70
2014,05,13,05,56,13.70
2014,05,13,06,14,13.70
2014,05,13,06,15,13.70
2014,05,13,06,16,13.70
2014,05,13,06,17,13.70
2014,05,13,06,18,13.70
2014,05,13,18,16,25.30
2014,05,13,22,18,17.10
2014,05,13,22,19,17.10
2014,05,13,22,20,17.10
2014,05,13,22,21,17.00
2014,05,13,22,22,17.00
2014,05,13,22,23,17.00
2014,05,13,22,24,17.00
2014,05,13,22,25,16.90
2014,05,13,22,26,16.90
2014,05,13,22,27,16.90
2014,05,13,22,28,16.90
2014,05,13,22,29,16.80
2014,05,13,22,30,16.80
2014,05,13,22,31,16.80
2014,05,13,22,32,16.70
2014,05,13,22,33,16.70
2014,05,13,22,34,16.60
2014,05,13,22,35,16.60
2014,05,13,22,36,16.60
2014,05,13,22,37,16.60
2014,05,13,22,38,16.60
2014,05,13,22,39,16.60
2014,05,13,22,40,16.60
2014,05,13,22,41,16.60
2014,05,13,22,42,16.60
2014,05,13,22,43,16.50
2014,05,13,22,44,16.50
2014,05,13,22,45,16.50
2014,05,13,22,46,16.40
2014,05,13,22,47,16.40
2014,05,13,22,48,16.40
2014,05,13,22,49,16.40
2014,05,13,22,50,16.30
2014,05,13,22,51,16.30
2014,05,13,22,52,16.30
2014,05,13,22,53,16.30
2014,05,13,22,54,16.30
2014,05,13,22,55,16.30
2014,05,13,22,56,16.30
2014,05,13,22,57,16.20
2014,05,13,22,58,16.20
2014,05,13,22,59,16.20
2014,05,13,23,00,16.20
2014,05,13,23,01,16.20
2014,05,13,23,02,16.20
2014,05,13,23,03,16.10
2014,05,13,23,04,16.10
2014,05,13,23,05,16.10
2014,05,13,23,06,16.00
2014,05,13,23,07,16.00
2014,05,13,23,08,16.00
2014,05,13,23,09,15.90
2014,05,13,23,10,15.90
2014,05,13,23,11,15.90
2014,05,13,23,12,15.90
2014,05,13,23,13,15.90
2014,05,13,23,14,15.90
2014,05,13,23,15,15.80
2014,05,13,23,16,15.80
2014,05,13,23,17,15.80
2014,05,13,23,18,15.70
2014,05,13,23,19,15.70
2014,05,13,23,20,15.60
2014,05,13,23,21,15.60
2014,05,13,23,22,15.50
2014,05,13,23,23,15.50
2014,05,13,23,24,15.40
2014,05,13,23,25,15.40
2014,05,13,23,26,15.40
2014,05,13,23,27,15.30
2014,05,13,23,28,15.30
2014,05,13,23,29,15.30
2014,05,13,23,30,15.30
2014,05,13,23,31,15.30
2014,05,13,23,32,15.30
2014,05,13,23,33,15.20
2014,05,13,23,34,15.20
2014,05,13,23,35,15.20
2014,05,13,23,36,15.20
2014,05,13,23,37,15.20
2014,05,13,23,38,15.20
2014,05,13,23,39,15.20
2014,05,13,23,40,15.20
2014,05,13,23,41,15.20
2014,05,13,23,42,15.20
2014,05,13,23,43,15.20
2014,05,13,23,44,15.30
2014,05,13,23,45,15.30
2014,05,13,23,46,15.30
2014,05,13,23,47,15.30
2014,05,13,23,48,15.30
2014,05,13,23,49,15.30
2014,05,13,23,50,15.20
2014,05,13,23,51,15.20
2014,05,13,23,52,15.20
2014,05,13,23,53,15.20
2014,05,13,23,54,15.10
2014,05,13,23,55,15.00
2014,05,13,23,56,15.00
2014,05,13,23,57,15.00
2014,05,13,23,58,15.00
2014,05,13,23,59,15.00
